Theta_e
309 309 309 309 307 307 307 308 309 308 309 311 309 308 308 310 310 311 313 314 314 314 314 313 313 314 314 315 317 319 320 322 327 333 333 332 333 332 331 331 329 329 330 330
308 308 307 307 306 307 307 308 308 308 309 310 308 308 307 307 309 312 313 313 314 314 314 314 312 313 313 314 314 315 317 319 322 326 330 332 333 333 331 332 331 331 328 330
307 308 306 307 306 307 307 306 307 308 307 307 305 305 306 306 307 311 312 313 313 313 312 313 313 314 314 313 314 314 315 315 316 320 328 331 333 332 334 332 331 331 330 329
307 306 306 307 307 306 307 305 307 309 308 308 305 306 305 305 305 305 310 312 312 311 312 312 313 313 313 315 313 314 316 316 315 317 323 327 329 330 331 330 332 331 329 329
306 307 307 307 307 306 307 305 307 308 307 308 307 307 305 305 307 306 308 310 311 314 314 315 313 313 313 314 313 313 314 314 314 314 318 322 327 329 330 330 332 331 330 330
306 307 307 307 306 307 306 306 305 305 305 308 306 306 304 305 306 307 308 310 311 314 314 313 314 315 314 315 315 315 314 313 314 314 315 319 322 325 327 330 331 329 331 330
310 310 309 308 308 307 307 307 308 308 308 309 304 305 306 306 304 304 305 308 310 315 315 315 315 316 316 316 316 315 314 315 314 314 314 316 320 323 327 330 330 332 329 328
308 310 309 308 307 308 306 307 308 307 308 307 305 307 307 304 306 309 310 312 313 314 315 316 316 316 316 316 316 316 315 315 314 315 318 321 325 327 329 329 329 329 328 326
309 308 309 308 307 308 308 308 306 305 295 306 306 306 306 307 308 310 310 311 311 311 312 313 314 314 315 315 314 314 316 318 320 322 323 324 325 327 328 326 325 326 324 323
308 309 309 309 309 309 308 307 308 306 305 307 306 306 308 310 309 310 309 310 312 312 313 313 313 313 313 313 313 313 313 313 314 314 314 315 316 319 320 320 318 316 314 313
307 308 310 309 309 309 308 308 308 308 308 310 307 307 303 305 309 308 309 311 312 312 312 313 312 312 312 312 312 312 312 312 312 312 312 312 312 312 312 311 311 311 310 310
309 309 310 310 308 308 309 308 308 309 307 306 306 309 308 306 306 309 310 312 313 313 312 312 312 312 312 311 311 311 311 312 312 312 312 312 312 312 312 312 312 311 311 310
310 311 310 311 308 309 310 309 308 308 307 307 307 310 306 306 307 310 312 312 312 312 312 312 312 312 311 311 311 311 311 312 313 312 312 312 312 312 311 311 311 311 311 310
310 308 311 314 310 310 312 309 309 310 311 310 309 310 309 307 308 310 312 312 312 311 312 311 311 310 311 311 311 312 312 312 312 312 312 312 312 312 311 311 311 310 310 310
312 310 310 310 309 309 308 307 310 311 311 310 311 308 308 307 308 309 312 312 312 311 310 310 310 310 310 310 310 311 311 311 311 312 312 312 313 312 311 311 310 310 309 308
312 313 312 314 312 312 313 312 309 309 310 310 309 309 306 309 309 309 311 311 310 309 309 309 309 309 310 310 310 311 311 312 312 312 312 311 311 310 309 309 308 308 308 307
311 309 312 316 312 311 313 313 312 310 310 310 311 311 309 309 308 309 309 309 309 308 308 308 308 308 308 308 309 309 310 309 309 308 307 307 307 308 307 308 307 308 307 307
309 310 311 311 312 316 311 305 311 312 311 308 308 308 307 308 308 309 307 307 304 303 303 303 304 305 305 305 305 305 306 306 305 305 305 305 305 306 307 307 307 307 307 308
309 310 311 312 313 307 308 304 307 310 312 310 309 305 305 304 304 302 303 304 304 303 303 304 304 304 304 304 304 304 304 303 303 303 303 303 303 304 305 305 305 305 304 305
306 308 312 305 309 308 303 300 306 305 311 302 308 305 302 303 305 300 301 301 300 300 300 300 300 301 301 302 302 302 302 303 303 303 303 303 303 303 303 303 303 303 304 304
309 309 312 307 305 299 299 302 306 304 305 301 306 306 302 300 304 303 301 300 298 298 298 299 300 301 301 301 301 301 301 301 301 301 300 299 299 299 300 301 301 301 302 302
308 309 309 303 306 309 298 303 306 302 300 303 304 303 303 303 300 299 297 296 297 297 298 298 299 299 299 299 299 300 299 299 299 299 299 299 299 298 298 297 297 297 298 300
305 303 305 304 306 298 300 301 304 302 303 302 305 303 303 297 295 295 295 295 295 295 296 296 296 297 297 298 298 298 297 297 297 297 297 296 297 298 297 297 297 296 297 299
294 295 298 301 299 298 300 301 302 303 304 303 301 299 297 295 295 295 295 295 295 295 295 295 296 296 296 295 295 295 296 296 296 295 295 295 295 295 296 296 296 296 297 298
296 295 293 294 297 296 298 300 302 302 302 298 295 295 295 295 295 295 295 295 294 294 295 295 296 295 295 295 296 296 296 296 296 296 296 295 295 295 295 295 295 295 296 296
294 295 298 298 298 300 300 300 299 300 298 296 295 295 295 295 295 295 295 294 294 294 293 293 293 293 294 294 294 294 294 294 294 294 295 295 295 294 294 294 294 295 295 295
Wind_Speed
2 3 6 6 5 2 5 4 4 2 1 2 6 8 14 19 18 22 22 23 23 24 23 23 23 24 26 30 34 35 35 37 38 40 42 41 39 37 36 33 29 29 28 31
4 5 7 6 6 4 4 3 2 3 1 3 5 10 12 13 15 23 25 27 28 28 31 32 29 26 30 31 31 34 36 36 37 40 41 43 40 40 38 35 33 32 33 32
7 3 8 7 5 6 3 5 4 6 3 2 6 8 7 5 10 25 29 34 34 34 34 28 20 18 24 34 36 34 34 36 36 38 41 43 41 41 40 39 37 33 33 33
4 3 6 4 5 6 6 8 5 3 3 3 2 6 6 5 8 7 22 25 26 26 26 26 23 23 20 18 29 33 32 33 36 39 41 43 43 43 43 41 38 33 29 33
6 9 6 5 7 8 6 6 6 3 3 1 3 2 7 3 5 10 15 16 13 12 14 15 15 14 16 17 19 29 33 33 33 38 40 41 42 41 41 39 36 36 35 36
4 2 4 7 3 5 10 7 7 4 2 3 7 7 5 4 7 4 2 3 11 13 10 5 4 7 9 11 12 18 24 26 28 32 37 39 38 40 40 39 36 33 34 36
2 2 2 4 7 5 3 7 2 2 1 6 3 3 5 6 10 6 10 16 12 9 7 5 3 2 1 3 6 11 16 19 23 26 29 30 32 33 33 34 32 32 29 28
7 4 8 5 7 9 7 8 6 8 4 3 2 7 6 8 7 9 8 8 6 4 2 2 2 2 1 2 2 3 8 11 13 16 19 20 22 23 24 23 27 27 26 24
7 5 1 2 5 11 6 7 5 7 2 3 5 7 8 7 4 1 3 4 3 1 2 2 1 2 3 5 4 4 4 5 7 9 12 14 16 17 18 21 24 24 26 28
7 3 1 3 4 2 7 8 3 2 3 3 5 6 7 2 6 3 4 7 6 4 1 1 1 2 4 5 6 6 6 7 9 11 12 12 12 14 15 18 20 22 23 24
6 4 1 4 7 9 3 4 2 4 5 6 2 7 7 8 6 7 4 8 10 7 3 0 2 3 4 5 6 7 9 9 8 8 8 7 7 8 8 8 10 12 13 15
6 4 4 7 1 1 3 10 7 5 5 3 3 12 3 4 8 11 8 8 10 9 7 4 2 4 3 2 4 7 10 11 11 9 8 7 5 3 4 6 10 13 14 16
10 2 2 6 2 3 4 4 4 5 3 8 5 13 3 4 4 4 4 3 2 1 2 2 2 2 5 8 9 9 10 10 8 5 2 1 3 7 10 11 14 16 17 19
10 5 10 14 3 7 6 6 9 7 3 9 14 4 4 7 7 5 6 4 2 3 2 2 4 6 9 10 10 10 8 7 4 2 5 6 7 11 15 17 18 19 20 21
4 6 7 3 5 3 2 3 9 16 21 11 25 16 9 13 13 17 6 5 6 7 5 5 5 5 7 7 5 3 2 3 4 6 9 12 14 17 19 21 22 22 22 22
2 3 4 6 6 4 4 8 7 11 13 20 15 19 5 23 15 13 11 11 11 10 9 8 7 6 7 7 7 6 5 5 8 11 13 18 18 19 20 22 22 21 21 23
7 5 4 4 8 8 5 27 19 7 10 11 18 19 7 5 10 16 13 13 13 11 9 8 8 5 3 2 1 2 3 6 10 11 11 14 13 14 15 16 17 17 19 20
5 5 4 3 4 6 4 1 21 23 17 13 8 2 7 9 11 14 12 14 12 9 8 6 6 6 5 4 4 3 3 2 3 5 7 9 11 12 12 13 15 17 19 20
4 5 2 4 5 6 4 5 8 10 15 21 17 7 5 17 16 7 14 15 14 11 9 6 4 3 2 1 3 4 5 7 9 10 12 13 14 15 16 16 18 20 21 22
4 4 6 3 5 10 3 2 7 7 10 7 21 14 12 19 6 4 19 17 14 11 9 7 5 3 2 1 3 5 8 10 12 13 14 15 16 17 19 20 21 23 24 24
5 4 11 5 4 7 5 5 12 6 6 4 12 18 24 5 4 25 21 16 11 9 7 5 4 2 1 4 6 9 11 12 13 13 14 15 17 18 20 21 23 23 25 26
8 7 4 2 2 10 8 5 8 2 2 4 14 21 23 19 24 23 17 14 11 8 6 3 1 2 5 7 9 11 11 11 11 12 14 16 18 21 22 23 24 25 26 26
3 6 6 7 5 3 17 3 10 3 8 11 18 24 27 26 22 18 14 10 7 5 2 1 3 5 8 9 10 10 11 13 14 15 17 19 21 23 24 23 23 24 24 24
3 3 3 3 4 4 9 11 8 11 15 20 24 27 26 26 18 13 9 6 3 1 3 5 7 7 8 9 11 12 13 15 17 18 20 22 24 25 25 25 25 26 25 23
3 7 5 3 1 3 8 15 18 20 22 25 23 22 19 16 13 9 5 3 1 3 6 8 9 10 11 13 16 17 19 20 21 22 24 25 26 27 26 27 27 26 24 24
7 6 5 6 14 10 14 24 24 28 30 26 24 19 13 10 8 6 5 5 5 7 8 10 12 13 16 18 20 23 25 26 28 29 29 29 28 28 28 28 28 27 27 25
Wind_Direction
123 132 196 186 177 142 125 135 177 225 288 203 233 265 277 283 284 278 270 267 264 265 265 261 256 250 246 243 242 240 238 239 238 235 235 237 239 241 242 240 246 245 249 242
69 222 199 132 133 116 118 132 227 288 37 157 329 274 271 269 264 267 269 268 267 268 269 269 267 259 250 246 243 241 238 237 238 239 239 240 242 245 247 248 244 242 246 250
160 209 155 140 141 143 159 164 188 223 354 66 334 283 265 292 264 265 264 265 269 270 274 282 269 257 256 246 238 238 240 239 238 239 239 240 239 245 245 247 248 250 246 246
207 144 131 125 174 135 191 200 165 173 94 237 18 285 293 272 298 299 278 270 270 282 286 283 276 266 255 264 240 235 237 240 239 237 238 239 240 241 246 251 251 250 258 256
230 160 143 173 188 168 217 134 150 105 117 51 321 331 271 347 292 268 264 283 314 332 309 273 261 255 245 241 234 231 235 238 239 238 237 240 242 246 249 253 251 254 249 252
158 183 162 189 98 146 147 79 53 60 93 287 199 176 257 210 218 276 279 13 345 341 354 342 268 261 241 241 244 239 236 237 239 238 236 239 244 247 250 252 257 259 259 257
106 198 185 145 88 40 92 97 18 346 4 232 339 166 243 241 240 228 287 306 319 339 352 10 22 38 175 235 248 236 226 233 236 233 233 239 245 251 255 257 261 261 262 263
160 227 166 183 167 163 186 159 164 197 199 241 58 233 254 236 303 289 281 312 305 293 321 334 353 51 326 302 284 237 234 234 227 226 231 237 243 248 252 256 257 259 263 261
165 240 63 168 146 146 207 212 169 105 36 64 215 283 291 264 225 71 339 333 16 192 204 216 293 297 279 269 264 238 212 207 215 222 229 235 239 243 244 246 253 259 266 266
198 122 343 151 110 27 162 155 78 5 138 245 264 274 226 152 198 123 24 32 33 42 5 307 230 220 236 237 239 236 227 222 219 223 225 227 230 235 241 247 253 258 261 264
146 117 311 118 211 163 135 182 137 136 167 187 231 247 208 212 155 145 126 85 74 73 84 168 260 275 274 263 241 221 210 203 199 198 196 196 203 215 226 244 261 269 274 275
186 136 160 199 278 295 310 200 161 163 225 246 166 257 7 183 155 139 126 96 82 75 67 55 304 266 280 256 171 158 152 143 139 142 148 155 163 215 264 289 295 297 299 295
162 196 67 343 350 3 216 192 153 109 91 204 150 253 360 129 163 153 145 131 99 60 49 49 69 142 139 132 132 133 129 121 120 123 140 236 279 289 291 294 293 295 295 290
156 131 199 217 212 145 196 200 193 171 171 223 233 219 210 216 208 209 207 220 253 234 232 191 142 142 145 144 139 140 143 150 162 239 289 300 299 293 292 292 293 294 293 292
122 196 185 169 140 101 145 167 191 202 222 196 250 234 194 202 203 205 208 223 215 216 206 189 174 161 163 172 165 151 191 238 267 289 292 292 291 292 291 293 292 289 287 289
131 227 194 239 207 190 277 246 208 243 239 242 255 254 174 207 206 192 212 209 202 183 173 154 152 162 170 181 194 206 220 262 279 282 290 288 289 292 294 293 291 292 295 296
156 152 148 226 170 165 240 228 228 224 215 225 233 248 168 177 196 214 208 189 174 162 155 155 153 159 162 164 193 266 291 293 296 303 298 293 300 301 298 296 297 300 299 298
151 156 169 127 132 208 232 92 210 217 229 214 235 128 189 211 199 206 189 167 151 141 135 128 118 111 91 72 63 63 59 8 330 317 316 324 325 320 316 312 310 311 312 306
181 154 179 173 208 309 252 188 152 175 247 228 224 168 153 142 131 137 161 163 158 157 156 151 137 124 108 47 350 352 348 342 334 328 327 326 324 322 319 318 320 321 322 320
199 178 197 149 183 208 267 189 153 105 273 213 195 180 164 153 166 200 166 164 161 162 161 154 152 153 153 281 313 319 322 320 318 318 319 319 317 312 309 308 308 307 305 304
181 190 214 189 214 283 238 171 151 126 244 41 196 179 160 178 216 158 164 165 167 164 159 149 142 141 310 317 321 321 319 317 317 319 318 319 320 319 315 308 303 300 297 296
169 164 181 120 178 252 170 112 171 216 97 150 156 167 161 140 134 144 150 150 146 143 140 137 112 314 311 310 310 308 306 311 316 320 320 322 323 322 320 316 310 306 301 298
198 179 170 184 201 205 191 187 221 203 163 159 166 165 157 143 141 139 136 134 132 131 134 307 307 299 295 295 293 291 299 305 307 310 313 315 317 317 317 316 315 309 302 298
262 186 152 105 212 204 215 227 219 208 177 158 153 152 155 146 144 140 138 134 141 212 283 285 281 278 283 293 299 301 300 301 304 307 310 311 313 311 308 307 308 309 306 298
184 145 160 280 261 123 214 209 196 179 168 158 153 154 154 155 151 152 156 165 234 270 278 279 276 278 282 287 292 294 296 299 301 304 305 306 304 301 301 299 299 300 299 294
189 176 170 216 188 193 212 197 186 175 169 168 168 165 168 171 178 185 205 225 250 273 282 286 290 289 288 290 292 293 295 297 297 296 296 296 296 295 295 294 292 290 290 286